Location: Unspecified
(0.0000°N, 0.0000°E)
Time: 16:53:31
(UTC+00:00)

Hubble Space Telescope - Pass Details

Date: 18 January 2021
Orbit: 536 x 539 km, 28.5° (Epoch: 24 January)

Event Time Altitude Azimuth Distance (km) Brightness Sun altitude
Exits shadow 04:46:47 11° 217° (SW) 1,731 3.2 -19.5°
Maximum altitude 04:47:30 11° 207° (SSW) 1,706 3.3 -19.4°
Drops below altitude 10° 04:48:45 10° 189° (S) 1,779 3.6 -19.1°
Sets 04:52:36 0° 153° (SSE) 2,670 5.1 -18.2°
